TimePDT,TemperatureF,Dew PointF,Humidity,Sea Level PressureIn,VisibilityMPH,Wind Direction,Wind SpeedMPH,Gust SpeedMPH,PrecipitationIn,Events,Conditions,WindDirDegrees,DateUTC
12:56 AM,35.1,14.0,42,30.11,10.0,East,4.6,-,N/A,,Clear,80,2013-03-12 07:56:00
1:56 AM,34.0,14.0,44,30.11,10.0,Calm,Calm,-,N/A,,Clear,0,2013-03-12 08:56:00
2:56 AM,33.1,14.0,46,30.11,10.0,Calm,Calm,-,N/A,,Clear,0,2013-03-12 09:56:00
3:56 AM,32.0,15.1,50,30.11,10.0,South,4.6,-,N/A,,Clear,190,2013-03-12 10:56:00
4:56 AM,28.9,14.0,54,30.11,10.0,Calm,Calm,-,N/A,,Clear,0,2013-03-12 11:56:00
5:56 AM,28.9,17.1,61,30.11,10.0,South,5.8,-,N/A,,Clear,170,2013-03-12 12:56:00
6:14 AM,28.4,15.8,59,30.22,10.0,South,4.6,-,N/A,,Clear,190,2013-03-12 13:14:00
6:56 AM,30.0,16.0,56,30.12,10.0,SSW,3.5,-,N/A,,Partly Cloudy,210,2013-03-12 13:56:00
7:56 AM,33.1,18.0,54,30.14,10.0,Calm,Calm,-,N/A,,Mostly Cloudy,0,2013-03-12 14:56:00
8:56 AM,41.0,19.9,43,30.15,10.0,Calm,Calm,-,N/A,,Mostly Cloudy,0,2013-03-12 15:56:00
9:56 AM,50.0,18.0,28,30.15,10.0,Calm,Calm,-,N/A,,Mostly Cloudy,0,2013-03-12 16:56:00
10:56 AM,55.9,19.0,24,30.15,10.0,ESE,3.5,-,N/A,,Mostly Cloudy,110,2013-03-12 17:56:00
11:56 AM,59.0,19.9,22,30.14,10.0,ENE,3.5,-,N/A,,Mostly Cloudy,70,2013-03-12 18:56:00
12:56 PM,64.0,19.0,18,30.12,10.0,Variable,4.6,-,N/A,,Mostly Cloudy,0,2013-03-12 19:56:00
1:56 PM,64.9,19.0,17,30.10,10.0,Variable,3.5,-,N/A,,Mostly Cloudy,0,2013-03-12 20:56:00
2:56 PM,69.1,19.9,15,30.07,10.0,NE,4.6,-,N/A,,Mostly Cloudy,50,2013-03-12 21:56:00
3:56 PM,69.1,19.9,15,30.06,10.0,Calm,Calm,-,N/A,,Mostly Cloudy,0,2013-03-12 22:56:00
4:56 PM,70.0,18.0,14,30.06,10.0,Calm,Calm,-,N/A,,Overcast,0,2013-03-12 23:56:00
5:56 PM,69.1,18.0,14,30.05,10.0,Calm,Calm,-,N/A,,Overcast,0,2013-03-13 00:56:00
6:56 PM,64.0,19.0,18,30.05,10.0,North,3.5,-,N/A,,Overcast,360,2013-03-13 01:56:00
7:56 PM,57.9,18.0,21,30.06,10.0,NNE,3.5,-,N/A,,Mostly Cloudy,20,2013-03-13 02:56:00
8:56 PM,54.0,19.9,26,30.08,10.0,ENE,5.8,-,N/A,,Mostly Cloudy,60,2013-03-13 03:56:00
9:56 PM,48.0,17.1,29,30.09,10.0,SE,6.9,-,N/A,,Scattered Clouds,140,2013-03-13 04:56:00
10:56 PM,46.9,19.0,33,30.10,10.0,SSE,6.9,-,N/A,,Mostly Cloudy,160,2013-03-13 05:56:00
11:56 PM,46.9,19.0,33,30.11,10.0,SE,4.6,-,N/A,,Scattered Clouds,140,2013-03-13 06:56:00